7 * 24
多渠道服务支持
STARLINK-37517(NORAD编号69254)是美国SpaceX公司星链(Starlink)星座中的低轨通信卫星,属于第二代星链V2 Mini批次。作为全球最大卫星互联网星座的组成部分,它采用先进相控阵天线和E-band回程技术,单星带宽可达100Gbps,配备激光星间链路,可直接实现星间通信,降低对地面基站依赖。该卫星运行在近地轨道,旨在拓展全球高速宽带互联网覆盖,为偏远地区、海上用户提供网络服务,截至目前仍保持正常在轨运行状态,支撑星链网络的全球服务能力。
美国
(US)
| 数据来源 | 国际轨道数据 |
| 星历时间: | 2026-07-27T22:00:02+0800 10小时前 查看轨道信息 |
| 半长轴: | 6840.816km |
| 偏心率: | 0.0001208 |
| 轨道倾角: | 53.159° |
| 近地点辐角 | 95.482° |
| 升交点赤经 | 50.179° |
| 平近点角 | 125.107° |
| 近地点: | 461.852km |
| 远地点: | 463.506km |
| 周期: | 93.847分钟 |
| 每日圈数: | 15.344082 |